Regional Weather Roundup
Issued by NWS New Orleans/Baton Rouge, LA

Home | Current Version | Previous Version | Text Only | Print | Product List | Glossary On
Versions: 1 2 3 4 5 6 7 8 9 10 11 12 13 14 15 16 17 18 19 20 21 22 23 24 25 26 27
000
ASUS44 KLIX 230113
RWRLIX
NEW ORLEANS REGIONAL WEATHER ROUNDUP
NATIONAL WEATHER SERVICE NEW ORLEANS LA
800 PM CDT TUE AUG 22 2017

NOTE: "FAIR" INDICATES FEW OR NO CLOUDS BELOW 12,000 FEET WITH NO
      SIGNIFICANT WEATHER AND/OR OBSTRUCTIONS TO VISIBILITY.
      SKY/WX - SKY CONDITION AND SIGNIFICANT WEATHER.
      TMP - AIR TEMPERATURE.     DP    - DEWPOINT TEMPERATURE.
      RH  - RELATIVE HUMIDITY.   PRES  - PRESSURE.
      HI  - HEAT INDEX.          WCI   - WIND CHILL INDEX.

*  THESE STATIONS ARE NOT NWS OR FAA STATIONS AND ARE NOT UNDER
   NWS QUALITY CONTROL.

LAZ038-040-048-061>063-065>067-069-230200-
SOUTHEAST LOUISIANA

CITY           SKY/WX    TMP DP  RH WIND       PRES   REMARKS
N.O. INTL ARPT MOCLDY    84  75  74 S6        30.00R
N.O. LAKEFRONT PTCLDY    85  76  74 E7        30.00S
N.O. DOWNTOWN*   N/A     86  75  69 E5        30.01S HX  95
RESERVE*         N/A     81  76  84 W5        30.01S
SLIDELL        CLOUDY    80  77  90 CALM      30.00R
BATON ROUGE    PTCLDY    74  73  97 N3        30.01F
BOOTHVILLE     CLEAR     84  77  79 SE3       30.00F
BELLE CHASSE   PTCLDY    84  80  88 E3        30.00R HX  97
BOGALUSA*        N/A     83  75  76 CALM      30.02S
GALLIANO*      CLEAR     80  76  87 CALM      30.00S
NEW ROADS*       N/A     75  74  96 CALM      30.01F
GONZALES*        N/A     77  74  91 CALM      30.00S
HAMMOND*       MOCLDY    81  75  83 NW3       30.01R
HOUMA*         NOT AVBL
PORT FOURCHON* CLEAR     86  73  66 SE5       29.99S

$$

MSZ070-080>082-230200-
SOUTHERN MISSISSIPPI

CITY           SKY/WX    TMP DP  RH WIND       PRES   REMARKS
MCCOMB         PTCLDY    80  75  84 W5        30.02S
GULFPORT       CLOUDY    80  75  84 CALM      29.99F
BILOXI         PTCLDY    82  75  79 CALM      30.00S
PASCAGOULA     PTCLDY    78  75  90 CALM      30.00F
STENNIS ARPT*  PTCLDY    81  77  89 CALM      30.00F

$$

COASTAL OBSERVATIONS
LAKE AND NEARSHORE STATIONS

STATION/POSITION TIME  TEMP    WIND        PRES    WAVE
                       AIR SEA DIR/SP/G            HT/PER
                 (UTC) (F)     (DEG/KT/KT) (MB)    (FT/S)
PASCAGOULA       0042   83     150/  2/  4 1015.6
WAVELAND YACHT   0042   83 87  140/  6/  8 1015.7
GRAND ISLE       0042   86 89  100/  3/  4 1016.0
SOUTHWEST PASS   0042   87      90/  4/  7   N/A
NEW CANAL        0042   84 88   CALM  /  2 1015.7
SHELL BEACH      0042   84 90  130/  6/  7 1015.9

OFFSHORE STATIONS

STATION/POSITION TIME  TEMP    WIND        PRES    WAVE
                       AIR SEA DIR/SP/G            HT/PER
                 (UTC) (F)     (DEG/KT/KT) (MB)    (FT/S)
64 S DAUPHIN ISL 0050   84 88   40/  4/  6 1016.1    2/ 6

$$





USA.gov is the U.S. government's official web portal to all federal, state and local government web resources and services.